Вагаршапат

Армения     40°09′47″N   44°17′36″E
темп.,
°C
ветер,
м/с
пор.,
м/с
влажн.,
%
обл.,
%
осадки,
мм/ч
давл.,
гПа
погр.,
м
22 июня, вт
вт2201:00+21ссв35540 0.1 1010101
04:00+19ссз11590 0.3 101017
07:00+23всв12480 0.0 1011107
10:00+30ююв23320 0.0 10101181
13:00+34ююв35210 0.0 10082324
16:00+38ююв561244 0.0 10054050
19:00+34св882393 0.1 10051082
22:00+25ссв710400 0.1 1008190
23 июня, ср
ср2301:00+21с14460 0.0 101069
04:00+18ссв01490 0.0 101113
07:00+22в11350 0.0 101277
10:00+30ююв33220 0.0 10101042
13:00+35ююв47140 0.0 10082195
16:00+38юв6590 0.0 10053387
19:00+36в67110 0.0 10042572
22:00+25ссв69390 0.0 1007157
24 июня, чт
чт2401:00+21ссв23400 0.0 100964
04:00+19ссв11430 0.0 101015
07:00+23всв11320 0.0 101165
10:00+30ююв33210 0.0 10091064
13:00+36ююв46120 0.0 10072052
16:00+39ююв7680 0.0 10042958
19:00+34св10102013 0.0 1004793
22:00+25ссв57360 0.0 1007137
25 июня, пт
пт2501:00+22с23350 0.0 100950
04:00+19св11410 0.0 100915
07:00+23в11310 0.0 101066
10:00+30ююв33200 0.0 10081043
13:00+35ююв34120 0.0 10062062
16:00+38ююв3490 0.0 10032994
19:00+35всв87180 0.0 1003935
22:00+25ссв47371 0.0 1005144
26 июня, сб
сб2601:00+21св22360 0.0 100744
04:00+19с11370 0.0 100813
07:00+23с11290 0.0 100961
10:00+31ю22180 0.0 10071197
13:00+36ю33120 0.0 10052320
16:00+38вюв3793 0.0 10024739
19:00+33св88227 0.0 1002635
22:00+23с253555 0.0 1005108